Wind_Speed
3 3 4 5 4 5 6 4 3 4 6 5 6 5 7 7 9 7 7 7 7 7 8 10 9 10 10 9 9 8 9 9 8 9 10 8 6 5
5 5 6 5 5 5 5 6 4 5 6 8 8 9 10 10 11 10 11 10 10 10 12 13 12 10 11 12 12 13 12 12 12 11 10 11 11 10
6 6 6 6 6 5 4 5 6 6 7 10 10 12 14 14 13 13 14 16 14 15 21 16 15 14 15 17 17 17 17 17 16 15 15 16 15 15
9 9 9 8 8 8 9 9 10 11 12 12 13 14 17 18 18 15 14 16 18 16 14 13 17 17 18 15 16 16 16 15 17 19 19 19 20 21
11 12 12 13 13 13 13 13 14 15 16 17 17 17 18 19 20 21 21 20 19 18 19 17 17 18 19 17 19 19 19 19 19 21 23 24 25 25
14 15 15 16 17 16 16 17 19 19 19 21 21 19 18 21 24 25 24 25 24 24 24 24 24 24 23 23 22 23 24 25 25 22 24 27 29 29
17 18 17 18 19 20 21 21 21 22 24 26 26 26 27 26 26 27 29 28 28 26 26 28 29 27 28 27 26 29 29 28 29 31 34 33 33 34
19 19 19 19 20 23 23 24 20 24 27 29 30 31 31 30 30 29 30 31 33 35 36 37 36 33 32 30 32 32 33 37 40 38 39 40 38 41
23 24 23 24 25 23 24 27 30 32 28 26 29 30 33 35 36 37 35 36 38 38 34 34 35 35 39 41 41 44 46 47 45 46 47 48 52 50
28 28 26 27 28 30 30 29 30 33 34 33 35 35 38 38 37 42 40 42 42 41 39 41 44 44 46 47 47 46 47 48 49 51 53 53 51 53
31 33 33 33 35 36 35 36 34 33 36 38 40 40 39 40 40 38 41 41 42 40 39 41 44 46 48 50 52 52 52 54 54 58 56 52 52 50
35 37 37 38 38 39 37 38 36 37 38 40 38 37 38 39 37 36 36 35 37 44 43 45 50 49 47 49 55 54 55 60 59 53 50 49 51 51
36 38 40 40 38 37 37 35 34 36 36 35 35 36 38 37 33 33 39 37 40 46 47 51 56 54 54 56 57 56 55 52 49 52 52 52 55 54
31 33 34 32 31 31 33 35 34 35 36 36 36 37 38 37 35 35 44 42 46 45 45 45 47 49 49 47 47 48 49 52 56 61 56 54 56 56
24 26 29 30 31 32 33 33 34 34 34 36 38 39 40 40 40 40 42 45 47 48 48 47 48 48 50 52 53 55 54 53 55 65 62 60 61 55
25 28 30 32 34 35 36 38 39 40 40 42 44 45 45 44 42 42 42 42 43 44 45 46 47 47 47 48 48 48 49 51 55 58 60 62 62 61
32 33 35 36 37 37 37 39 41 43 44 44 44 45 44 43 41 41 41 40 40 41 44 45 47 49 51 52 53 54 55 57 58 59 60 61 61 61
34 35 36 37 38 40 40 39 40 42 42 41 41 40 40 41 42 42 42 44 46 48 49 51 52 53 55 56 56 57 58 58 58 59 60 60 61 61
35 37 38 39 40 41 40 39 37 37 38 39 38 39 39 40 42 45 47 49 50 52 53 53 53 53 54 55 56 56 57 58 59 59 59 58 58 58
38 39 39 38 38 38 37 36 37 38 37 36 38 40 43 45 47 49 51 51 51 51 52 51 52 54 55 55 57 58 58 58 57 57 57 56 56 56
34 34 35 35 34 35 36 36 36 36 38 41 43 43 45 47 48 49 50 51 51 51 52 54 56 56 56 57 57 58 58 57 56 56 55 53 52 52
34 35 34 35 35 35 37 37 38 40 43 43 44 46 47 47 48 49 50 50 50 51 53 53 54 55 55 54 53 52 52 51 49 48 48 47 46 45
32 33 33 33 34 36 38 40 42 42 43 45 47 46 47 48 48 48 49 50 52 53 53 53 53 52 52 50 48 46 45 44 42 41 40 40 40 38
Wind_Direction
267 281 278 295 320 326 347 13 8 340 18 9 14 360 355 5 1 356 352 344 334 325 315 305 308 316 319 319 319 320 321 325 328 330 329 324 320 312
290 283 274 306 317 320 339 346 354 357 341 340 349 339 332 339 343 331 318 314 313 316 312 305 305 314 316 316 316 315 312 310 308 309 306 306 308 308
282 288 292 298 302 312 310 309 309 314 317 323 329 324 321 323 322 322 315 312 312 308 317 289 300 302 311 314 311 311 310 307 305 303 304 303 300 298
287 294 288 284 280 291 296 294 300 299 301 301 307 307 305 307 312 314 304 297 296 308 322 294 298 301 302 303 302 297 296 298 304 307 307 304 299 295
286 291 297 299 299 293 287 287 290 290 291 292 294 295 292 297 298 296 297 287 286 285 282 301 288 294 288 291 291 290 291 292 293 298 302 301 299 294
280 285 288 293 295 293 289 287 290 292 292 292 291 288 289 292 289 287 283 284 284 280 285 295 293 290 280 283 281 281 286 285 285 285 294 298 297 293
283 288 290 287 292 291 289 289 292 293 294 291 289 285 286 287 287 286 283 284 288 289 286 284 279 279 279 281 275 275 279 280 282 281 290 293 292 290
281 283 285 289 287 292 295 288 289 299 303 290 286 286 289 291 291 289 286 285 287 287 285 284 283 284 278 277 276 276 282 290 288 286 286 285 287 286
282 284 284 285 286 298 290 285 286 292 297 300 290 286 288 289 290 288 286 287 289 295 292 287 281 281 283 286 285 285 286 287 284 288 291 294 296 291
274 279 284 282 290 286 289 285 282 285 286 290 287 285 282 283 285 287 287 288 289 287 287 282 283 276 278 283 281 287 285 285 284 285 291 292 285 286
273 274 278 283 284 283 283 284 281 281 283 282 285 285 282 286 288 281 284 285 283 283 281 279 284 287 283 285 288 288 287 287 286 283 291 289 288 283
274 275 278 280 285 285 284 285 283 286 286 285 284 286 287 283 288 291 282 277 276 284 284 281 283 286 285 284 282 287 286 284 288 287 281 283 284 283
269 272 278 279 280 279 281 284 284 285 285 285 287 285 285 287 286 281 280 283 279 277 276 272 281 281 279 281 283 285 283 276 277 271 277 272 271 276
272 272 275 276 280 280 283 284 284 284 286 287 287 287 285 284 284 267 264 274 284 286 287 287 286 286 285 287 290 292 291 285 269 266 267 267 268 269
268 271 274 277 279 280 284 288 292 294 296 296 295 296 296 294 293 292 290 288 289 291 293 293 293 292 292 290 290 291 289 292 285 276 272 269 268 273
271 275 279 281 284 288 291 293 294 295 296 296 296 296 294 293 293 292 290 290 292 293 294 295 295 295 296 296 295 292 289 289 287 290 293 294 295 295
276 279 283 286 287 288 291 293 295 296 296 295 295 295 295 295 295 297 298 299 298 297 297 297 296 295 295 295 294 293 292 291 291 291 290 290 290 290
283 284 286 288 290 292 292 292 293 294 294 294 294 294 294 295 296 296 297 296 296 295 295 295 295 296 297 297 296 296 295 294 293 291 290 288 287 287
284 284 286 288 290 291 292 293 293 292 292 292 293 293 295 296 296 296 297 297 298 298 298 298 297 297 296 296 295 295 294 293 293 292 292 291 289 287
287 290 292 291 290 290 290 290 290 291 291 292 294 297 299 298 299 299 299 299 299 298 298 299 300 300 300 300 300 300 299 298 297 296 295 293 290 288
287 286 287 286 285 286 287 287 288 290 293 296 298 299 299 300 300 300 300 300 301 302 303 303 302 302 302 301 301 300 299 299 298 297 296 294 292 289
286 287 288 289 291 291 290 290 293 296 299 299 300 301 301 300 300 301 301 302 303 303 302 302 301 301 300 300 299 300 299 299 299 299 298 296 294 292
290 292 294 292 291 291 294 296 298 299 300 301 301 301 302 302 301 301 301 303 303 303 303 303 302 302 302 303 303 303 302 302 303 302 301 301 300 297
Height
5928 5928 5929 5929 5927 5926 5926 5926 5925 5924 5923 5922 5923 5921 5920 5919 5918 5917 5916 5914 5914 5913 5913 5914 5914 5912 5911 5910 5909 5907 5906 5904 5902 5902 5902 5900 5899 5898
5927 5929 5929 5927 5926 5926 5925 5924 5924 5923 5922 5922 5920 5920 5919 5917 5917 5917 5915 5913 5912 5912 5912 5912 5911 5910 5909 5908 5906 5905 5904 5903 5901 5900 5898 5897 5896 5895
5926 5926 5926 5926 5925 5924 5924 5923 5922 5921 5919 5919 5919 5917 5916 5915 5915 5914 5912 5911 5911 5910 5909 5908 5908 5907 5906 5905 5904 5903 5902 5900 5899 5897 5896 5894 5893 5891
5923 5923 5923 5923 5923 5922 5922 5921 5920 5919 5918 5917 5916 5915 5913 5911 5909 5909 5908 5907 5906 5905 5904 5903 5903 5902 5901 5900 5900 5899 5898 5896 5895 5894 5892 5890 5889 5887
5921 5920 5919 5919 5919 5918 5918 5917 5916 5915 5914 5914 5913 5912 5910 5909 5908 5906 5904 5903 5901 5899 5898 5896 5895 5895 5894 5893 5893 5893 5893 5892 5890 5889 5887 5885 5883 5881
5917 5916 5916 5915 5915 5914 5914 5913 5912 5910 5909 5908 5907 5907 5907 5906 5905 5903 5901 5898 5896 5894 5892 5891 5890 5888 5887 5886 5886 5886 5885 5884 5883 5881 5880 5878 5876 5874
5913 5912 5912 5911 5910 5909 5908 5908 5906 5905 5904 5903 5901 5900 5900 5900 5898 5897 5895 5894 5892 5890 5888 5885 5883 5882 5880 5879 5877 5876 5876 5875 5874 5872 5871 5869 5868 5865
5906 5906 5905 5905 5905 5904 5901 5900 5900 5899 5898 5896 5895 5893 5892 5892 5892 5890 5888 5887 5886 5884 5882 5879 5876 5874 5872 5871 5871 5869 5867 5865 5863 5862 5861 5859 5855 5852
5899 5899 5899 5898 5898 5897 5896 5895 5893 5892 5890 5889 5888 5886 5884 5882 5881 5880 5879 5878 5877 5875 5874 5871 5868 5865 5863 5863 5861 5859 5857 5855 5853 5850 5846 5843 5840 5838
5893 5892 5891 5891 5890 5889 5888 5887 5886 5884 5882 5880 5879 5877 5875 5874 5871 5869 5868 5867 5865 5864 5863 5861 5858 5855 5853 5850 5848 5846 5844 5841 5838 5836 5833 5829 5826 5822
5885 5885 5884 5883 5882 5880 5879 5878 5877 5875 5872 5869 5867 5866 5864 5862 5860 5859 5857 5856 5855 5854 5852 5851 5849 5845 5842 5839 5836 5834 5831 5827 5825 5821 5817 5813 5809 5806
5875 5875 5875 5874 5873 5871 5870 5869 5868 5866 5863 5861 5858 5855 5854 5852 5849 5847 5846 5845 5843 5841 5839 5837 5834 5832 5830 5827 5824 5821 5817 5812 5808 5804 5801 5798 5794 5791
5865 5864 5864 5864 5863 5862 5861 5859 5857 5856 5855 5853 5850 5847 5844 5842 5840 5839 5837 5835 5834 5831 5828 5823 5820 5817 5814 5811 5809 5806 5804 5799 5794 5787 5784 5780 5777 5774
5856 5856 5856 5855 5855 5854 5853 5851 5848 5846 5845 5843 5841 5838 5836 5834 5831 5830 5826 5823 5821 5817 5814 5810 5806 5803 5799 5796 5794 5790 5788 5784 5778 5772 5767 5764 5762 5759
5848 5848 5848 5848 5847 5845 5844 5842 5841 5839 5836 5834 5831 5828 5825 5823 5820 5818 5816 5812 5808 5803 5799 5795 5791 5789 5787 5783 5779 5774 5772 5769 5765 5760 5754 5748 5743 5738
5840 5841 5840 5840 5838 5837 5836 5834 5831 5829 5826 5823 5820 5816 5814 5811 5809 5806 5803 5798 5794 5790 5786 5783 5779 5775 5771 5767 5764 5760 5756 5752 5748 5744 5739 5733 5728 5723
5833 5833 5832 5831 5829 5827 5825 5823 5822 5820 5817 5813 5809 5806 5803 5800 5796 5793 5790 5786 5783 5779 5775 5771 5766 5762 5758 5755 5750 5745 5740 5737 5733 5728 5723 5719 5714 5708
5824 5823 5822 5821 5819 5818 5815 5812 5810 5808 5804 5802 5799 5795 5792 5789 5785 5782 5778 5775 5772 5768 5763 5757 5752 5747 5743 5739 5734 5729 5724 5720 5715 5710 5706 5701 5696 5691
5815 5814 5813 5811 5809 5807 5804 5802 5799 5797 5794 5792 5788 5785 5781 5778 5774 5770 5767 5763 5758 5753 5747 5742 5737 5732 5726 5721 5716 5711 5706 5701 5697 5692 5686 5682 5677 5673
5806 5805 5803 5800 5799 5798 5795 5792 5789 5786 5784 5781 5778 5775 5771 5766 5762 5758 5753 5748 5743 5738 5733 5727 5721 5716 5710 5705 5698 5692 5688 5683 5678 5673 5668 5663 5659 5653
5795 5793 5792 5790 5788 5787 5785 5782 5779 5776 5774 5770 5767 5763 5759 5754 5749 5744 5739 5734 5729 5723 5717 5711 5706 5700 5694 5688 5683 5676 5670 5665 5660 5655 5650 5646 5641 5636
5786 5784 5782 5780 5778 5776 5775 5772 5769 5766 5762 5758 5754 5750 5746 5742 5737 5731 5725 5720 5715 5709 5703 5698 5692 5685 5680 5674 5668 5661 5654 5649 5645 5639 5634 5630 5626 5620
5778 5775 5773 5772 5770 5767 5763 5761 5757 5754 5750 5747 5743 5739 5734 5728 5724 5719 5713 5706 5701 5694 5688 5683 5676 5670 5664 5658 5652 5647 5641 5636 5631 5626 5621 5618 5613 5609